Starlink 32353

operational
NORAD ID: 61587 Int'l Des: 2024-187 Owner: SPXS Country: US Constellation: starlink
LEOCIRCULAR

About Starlink 32353

Description loading...

Live Position

Loading 3D Globe...

Upcoming Passes

Altitude History

Altitude vs Time

uPlot chart will show altitude changes over time

Two-Line Element Set

1 61587U 24187P 25306.25418984 .00032959 00000-0 11197-2 0 9995
2 61587 53.1599 296.8835 0001411 87.1830 272.9332 15.30210174 59518
Epoch: Nov 2, 2025 • Age: 14 hours

Current Status

Altitude 494.4 km
Velocity 7.62 km/s
Sub-Earth Point -52.81°S, 145.8°W
Launch Date Oct 18, 2024
Age 1 years
Type internet

Technical Details

Classification Payload
Mass 730.00 kg
Dry Mass 700.00 kg
Total Mass 730.00 kg
Length 0.30 m
Diameter 4.10 m
Span 29.00 m
Shape Box + pan
Manufacturer SPXS
Bus Type Starlink V2M
Phase Status In Orbit
Owner/State SPXS/US

Large Constellations

Loading constellations...